Voltar ao catálogo

STARLINK-30286

AtivoComunicaçõesVLEO
NORAD 57647·PAYLOAD·🇺🇸 United States

Lançado Aug 17, 2023 de Cape Canaveral Space Force Station

Loading…

Próximas Passagens (próximas 24 horas)

TLE

AtualizadoSource: CelesTrak SupGP

Época: Sep 15, 2026, 03:06 UTC

1 57647C 23122R   26258.12965278  .00014890  00000+0  53923-3 0  2586
2 57647  43.0013 102.5213 0001454 271.4503 346.5281 15.27576185    19

Acompanhe STARLINK-30286 em tempo real com AllMySat

Download on the App Store